Skip Page Navigation
NASA JPL Caltech
NASA Logo - Jet Propulsion Laboratory + View the NASA Portal
+ Center for Near-Earth Object Studies
JPL Home Earth Solar System Stars & Galaxies Technology
JPL Solar System Dynamics
BODIES ORBITS EPHEMERIDES TOOLS PHYSICAL DATA DISCOVERY FAQ SITE MAP
IMPORTANT: The SSD Announcement email list is now available. Major changes are coming in the near future, including possible hostname and/or URL changes. To be notified of such changes, subscribe to this email list.

Please visit this page for more details.


JPL Small-Body Database Browser
Search: [ help ]  
52425 (1994 LU8)
Classification: Main-belt Asteroid          SPK-ID: 2052425
Ephemeris | Orbit Diagram | Orbital Elements | Mission Design | Physical Parameters | Discovery Circumstances | Close-Approach Data ]

[ show orbit diagram ]
Orbital Elements at Epoch 2459000.5 (2020-May-31.0) TDB
Reference: JPL 25 (heliocentric ecliptic J2000)
 Element Value Uncertainty (1-sigma)   Units 
e .1695669076855321 3.0945e-08  
a 2.255672131881418 8.412e-09 au
q 1.873184783725854 6.8093e-08 au
i 2.835609968290119 3.5284e-06 deg
node 93.83476702756998 9.9814e-05 deg
peri 163.1929505537976 0.0001009 deg
M 240.5506777112313 1.5966e-05 deg
tp 2459411.076016879318
(2021-Jul-15.57601688)
5.5395e-05 TDB
period 1237.406485398303
3.39
6.9219e-06
1.895e-08
d
yr
n .2909310758009492 1.6274e-09 deg/d
Q 2.638159480036983 9.8384e-09 au
  Orbit Determination Parameters
   # obs. used (total)      794  
   data-arc span      9361 days (25.63 yr)  
   first obs. used      1994-06-08  
   last obs. used      2020-01-24  
   planetary ephem.      DE431  
   SB-pert. ephem.      SB431-N16  
   condition code      0  
   norm. resid. RMS      .593  
   source      ORB  
   producer      Otto Matic  
   solution date      2020-Feb-23 10:28:21  

Additional Information
 Earth MOID = .85834 au 
 Jupiter MOID = 2.41264 au 
 T_jup = 3.603 
[ show covariance matrix ]

Ephemeris | Orbit Diagram | Orbital Elements | Mission Design | Physical Parameters | Discovery Circumstances | Close-Approach Data ]

Physical Parameter Table
Parameter Symbol Value Units Sigma Reference Notes
absolute magnitude H 15.9   n/a MPO449339  

52425 (1994 LU8)          Discovered 1994-Jun-08 by Debehogne, H., Elst, E. W. at La Silla
Reference: 20030216/Numbers.arcLast Updated: 2004-04-19

[ show close-approach data ]
Alternate Designations
 1994 LU8 = 2000 AQ248 
Ephemeris | Orbit Diagram | Orbital Elements | Mission Design | Physical Parameters | Discovery Circumstances | Close-Approach Data ]
ABOUT SSD CREDITS/AWARDS PRIVACY/COPYRIGHT GLOSSARY LINKS
FirstGov 2020-Apr-04 09:59 UT
(server date/time)  
NASA Home Page
Site Manager:   Ryan S. Park
Webmaster  Alan B. Chamberlin